| time (UTC) | temp F | wind direction | speed MPH | gust MPH | rain 1hr in | rain 24hr in | rain mn in | humidity % | barometer mb |
| 20260903121858 | 68 | 218 | 0.0 | 1.0 | 0.01 | 0.45 | 0.37 | 98 | 1015.2 |
| 20260903121335 | 68 | 218 | 0.0 | 1.0 | 0.01 | 0.45 | 0.37 | 98 | 1015.2 |
| 20260903121050 | 68 | 218 | 0.0 | 0.0 | 0.01 | 0.45 | 0.37 | 98 | 1015.4 |
| 20260903120323 | 68 | 218 | 0.0 | 0.0 | 0.01 | 0.45 | 0.37 | 98 | 1015.2 |
| 20260903115813 | 68 | 218 | 0.0 | 0.0 | 0.01 | 0.45 | 0.37 | 98 | 1015.1 |
| 20260903115306 | 68 | 218 | 0.0 | 0.0 | 0.01 | 0.45 | 0.37 | 98 | 1015.2 |
| 20260903114800 | 68 | 218 | 0.0 | 0.0 | 0.01 | 0.45 | 0.37 | 98 | 1015.0 |
| 20260903114251 | 68 | 218 | 0.0 | 3.0 | 0.01 | 0.45 | 0.37 | 98 | 1015.0 |
| 20260903113745 | 68 | 218 | 0.0 | 3.0 | 0.01 | 0.45 | 0.37 | 98 | 1015.4 |
| 20260903113240 | 68 | 218 | 0.0 | 3.0 | 0.00 | 0.44 | 0.36 | 98 | 1015.3 |
| 20260903112734 | 67 | 218 | 0.0 | 3.0 | 0.00 | 0.44 | 0.36 | 98 | 1015.1 |
| 20260903112224 | 67 | 217 | 0.0 | 4.0 | 0.00 | 0.44 | 0.36 | 98 | 1015.4 |
| 20260903111730 | 67 | 217 | 0.0 | 4.0 | 0.00 | 0.44 | 0.36 | 98 | 1015.3 |
| 20260903111437 | 67 | 219 | 0.0 | 4.0 | 0.00 | 0.44 | 0.36 | 98 | 1015.3 |
| 20260903110920 | 67 | 217 | 0.0 | 4.0 | 0.00 | 0.44 | 0.36 | 98 | 1015.3 |
| 20260903110155 | 67 | 197 | 0.0 | 2.0 | 0.00 | 0.44 | 0.36 | 98 | 1015.4 |
| 20260903105646 | 67 | 197 | 0.0 | 2.0 | 0.00 | 0.44 | 0.36 | 98 | 1015.5 |
| 20260903105140 | 67 | 197 | 0.0 | 2.0 | 0.00 | 0.44 | 0.36 | 98 | 1015.5 |
| 20260903104633 | 67 | 198 | 0.0 | 0.0 | 0.00 | 0.44 | 0.36 | 98 | 1015.6 |
| 20260903104123 | 67 | 198 | 0.0 | 0.0 | 0.00 | 0.45 | 0.36 | 98 | 1015.4 |
| 20260903103618 | 67 | 198 | 0.0 | 0.0 | 0.00 | 0.45 | 0.36 | 98 | 1015.4 |
| 20260903103112 | 67 | 198 | 0.0 | 2.0 | 0.00 | 0.45 | 0.36 | 98 | 1015.5 |
| 20260903102601 | 67 | 198 | 0.0 | 2.0 | 0.00 | 0.45 | 0.36 | 98 | 1015.5 |
| 20260903102315 | 67 | 198 | 0.0 | 2.0 | 0.00 | 0.45 | 0.36 | 98 | 1015.6 |
| 20260903101549 | 67 | 198 | 0.0 | 2.0 | 0.00 | 0.45 | 0.36 | 98 | 1015.6 |
| 20260903101039 | 67 | 193 | 0.0 | 3.0 | 0.00 | 0.45 | 0.36 | 98 | 1015.5 |
| 20260903100533 | 67 | 193 | 0.0 | 3.0 | 0.00 | 0.45 | 0.36 | 98 | 1015.4 |
| 20260903100027 | 67 | 193 | 0.0 | 3.0 | 0.00 | 0.45 | 0.36 | 98 | 1015.3 |
| 20260903095515 | 67 | 193 | 0.0 | 3.0 | 0.01 | 0.45 | 0.36 | 98 | 1015.1 |
| 20260903095012 | 67 | 180 | 0.0 | 2.0 | 0.01 | 0.45 | 0.36 | 98 | 1015.2 |
| 20260903094507 | 67 | 180 | 0.0 | 2.0 | 0.01 | 0.45 | 0.36 | 98 | 1015.0 |
| 20260903093955 | 68 | 180 | 0.0 | 2.0 | 0.02 | 0.45 | 0.36 | 97 | 1014.8 |
| 20260903093448 | 68 | 159 | 0.0 | 0.0 | 0.02 | 0.45 | 0.36 | 97 | 1015.0 |
| 20260903092943 | 68 | 159 | 0.0 | 0.0 | 0.02 | 0.45 | 0.36 | 97 | 1015.2 |
| 20260903092433 | 68 | 159 | 0.0 | 2.0 | 0.02 | 0.45 | 0.36 | 97 | 1015.3 |
| 20260903091927 | 68 | 159 | 0.0 | 2.0 | 0.02 | 0.45 | 0.36 | 98 | 1015.3 |
| 20260903091434 | 68 | 159 | 0.0 | 2.0 | 0.03 | 0.45 | 0.36 | 98 | 1015.2 |
| 20260903090916 | 68 | 159 | 0.0 | 4.0 | 0.03 | 0.45 | 0.36 | 98 | 1014.9 |
| 20260903090413 | 68 | 159 | 0.0 | 4.0 | 0.04 | 0.45 | 0.36 | 98 | 1015.4 |
| 20260903085913 | 68 | 59 | 0.0 | 0.0 | 0.04 | 0.45 | 0.36 | 98 | 1015.6 |
| 20260903085900 | 68 | 59 | 0.0 | 0.0 | 0.03 | 0.44 | 0.35 | 98 | 1015.8 |
| 20260903084907 | 68 | 59 | 0.0 | 0.0 | 0.03 | 0.44 | 0.35 | 98 | 1015.4 |
| 20260903084406 | 68 | 59 | 0.0 | 5.0 | 0.03 | 0.44 | 0.35 | 98 | 1015.3 |
| 20260903083903 | 68 | 59 | 1.0 | 5.0 | 0.02 | 0.43 | 0.34 | 98 | 1015.1 |
| 20260903083403 | 68 | 59 | 1.0 | 5.0 | 0.02 | 0.43 | 0.34 | 98 | 1015.1 |
| 20260903082902 | 68 | 61 | 2.0 | 6.0 | 0.02 | 0.43 | 0.34 | 98 | 1014.8 |
| 20260903082400 | 68 | 34 | 1.0 | 6.0 | 0.03 | 0.43 | 0.34 | 98 | 1014.3 |
| 20260903081902 | 68 | 30 | 1.0 | 6.0 | 0.03 | 0.44 | 0.34 | 98 | 1014.4 |
| 20260903081402 | 68 | 233 | 0.0 | 6.0 | 0.02 | 0.43 | 0.33 | 98 | 1014.5 |
| 20260903081125 | 67 | 80 | 0.0 | 0.0 | 0.02 | 0.43 | 0.33 | 98 | 1015.4 |
| 20260903080401 | 67 | 81 | 0.0 | 0.0 | 0.01 | 0.42 | 0.32 | 98 | 1015.8 |
| 20260903075858 | 67 | 81 | 0.0 | 0.0 | 0.01 | 0.42 | 0.32 | 98 | 1016.1 |
| 20260903075400 | 67 | 81 | 0.0 | 0.0 | 0.02 | 0.42 | 0.32 | 98 | 1016.3 |
| 20260903074854 | 67 | 81 | 0.0 | 0.0 | 0.02 | 0.42 | 0.32 | 98 | 1016.2 |
| 20260903074348 | 67 | 81 | 0.0 | 0.0 | 0.02 | 0.42 | 0.32 | 98 | 1016.2 |
| 20260903073840 | 67 | 80 | 0.0 | 1.0 | 0.02 | 0.42 | 0.32 | 98 | 1016.2 |
| 20260903073340 | 67 | 80 | 0.0 | 1.0 | 0.03 | 0.42 | 0.32 | 97 | 1016.1 |
| 20260903072839 | 67 | 80 | 0.0 | 0.0 | 0.04 | 0.42 | 0.32 | 97 | 1016.1 |
| 20260903072341 | 67 | 80 | 0.0 | 0.0 | 0.04 | 0.41 | 0.32 | 98 | 1015.9 |
| 20260903071837 | 67 | 80 | 0.0 | 0.0 | 0.05 | 0.41 | 0.31 | 97 | 1015.8 |
| 20260903071336 | 67 | 80 | 0.0 | 3.0 | 0.06 | 0.41 | 0.31 | 97 | 1015.7 |
| 20260903070838 | 67 | 80 | 0.0 | 3.0 | 0.06 | 0.41 | 0.31 | 97 | 1015.7 |
| 20260903070337 | 67 | 80 | 0.0 | 3.0 | 0.07 | 0.41 | 0.31 | 97 | 1015.5 |
| 20260903065836 | 67 | 80 | 0.0 | 3.0 | 0.07 | 0.41 | 0.31 | 97 | 1015.5 |
| 20260903065559 | 67 | 87 | 0.0 | 2.0 | 0.07 | 0.40 | 0.30 | 97 | 1015.5 |
| 20260903064831 | 67 | 86 | 0.0 | 0.0 | 0.07 | 0.40 | 0.30 | 97 | 1015.8 |
| 20260903064331 | 67 | 86 | 0.0 | 0.0 | 0.07 | 0.40 | 0.30 | 97 | 1016.2 |
| 20260903064103 | 67 | 86 | 0.0 | 0.0 | 0.07 | 0.40 | 0.30 | 97 | 1016.4 |
| 20260903063547 | 67 | 86 | 0.0 | 0.0 | 0.06 | 0.39 | 0.29 | 97 | 1016.4 |
| 20260903062828 | 67 | 86 | 0.0 | 0.0 | 0.05 | 0.38 | 0.28 | 97 | 1016.6 |
| 20260903062327 | 67 | 86 | 0.0 | 0.0 | 0.05 | 0.37 | 0.27 | 97 | 1016.7 |
| 20260903062040 | 67 | 86 | 0.0 | 0.0 | 0.04 | 0.36 | 0.26 | 97 | 1016.7 |
| 20260903061538 | 67 | 86 | 0.0 | 0.0 | 0.04 | 0.35 | 0.25 | 97 | 1016.8 |
| 20260903060817 | 67 | 86 | 0.0 | 0.0 | 0.04 | 0.35 | 0.25 | 97 | 1016.9 |
| 20260903060316 | 67 | 86 | 0.0 | 0.0 | 0.04 | 0.34 | 0.24 | 97 | 1017.1 |
| 20260903055814 | 67 | 86 | 0.0 | 0.0 | 0.05 | 0.34 | 0.24 | 97 | 1017.1 |
| 20260903055313 | 67 | 86 | 0.0 | 0.0 | 0.05 | 0.33 | 0.23 | 97 | 1017.2 |
| 20260903054811 | 67 | 86 | 0.0 | 0.0 | 0.06 | 0.33 | 0.23 | 97 | 1017.3 |
| 20260903054310 | 67 | 86 | 0.0 | 0.0 | 0.07 | 0.33 | 0.23 | 97 | 1017.4 |
| 20260903053808 | 67 | 86 | 0.0 | 0.0 | 0.07 | 0.33 | 0.23 | 97 | 1017.5 |
| 20260903053308 | 67 | 86 | 0.0 | 1.0 | 0.08 | 0.33 | 0.23 | 97 | 1017.5 |
| 20260903052809 | 67 | 86 | 0.0 | 1.0 | 0.13 | 0.33 | 0.23 | 97 | 1017.6 |
| 20260903052308 | 67 | 86 | 0.0 | 2.0 | 0.20 | 0.32 | 0.22 | 97 | 1017.4 |
| 20260903051808 | 67 | 86 | 1.0 | 2.0 | 0.21 | 0.32 | 0.22 | 97 | 1017.1 |
| 20260903051307 | 67 | 86 | 0.0 | 2.0 | 0.21 | 0.31 | 0.22 | 97 | 1017.1 |
| 20260903050805 | 67 | 86 | 0.0 | 2.0 | 0.21 | 0.31 | 0.21 | 97 | 1017.4 |
| 20260903050317 | 67 | 86 | 0.0 | 2.0 | 0.20 | 0.30 | 0.20 | 97 | 1017.8 |
| 20260903050034 | 67 | 86 | 0.0 | 1.0 | 0.19 | 0.29 | 0.19 | 97 | 1018.2 |
| 20260903045306 | 67 | 86 | 0.0 | 1.0 | 0.18 | 0.28 | 0.18 | 97 | 1018.6 |
| 20260903044805 | 66 | 86 | 0.0 | 1.0 | 0.17 | 0.27 | 0.17 | 97 | 1019.1 |
| 20260903044305 | 66 | 86 | 0.0 | 1.0 | 0.16 | 0.26 | 0.16 | 97 | 1019.3 |
| 20260903043806 | 66 | 86 | 0.0 | 1.0 | 0.16 | 0.26 | 0.16 | 97 | 1019.1 |
| 20260903043306 | 66 | 86 | 0.0 | 2.0 | 0.15 | 0.25 | 0.15 | 97 | 1019.0 |
| 20260903042804 | 66 | 86 | 0.0 | 2.0 | 0.10 | 0.20 | 0.10 | 97 | 1019.3 |
| 20260903042306 | 66 | 86 | 0.0 | 1.0 | 0.02 | 0.12 | 0.02 | 97 | 1020.1 |
| 20260903041807 | 66 | 86 | 0.0 | 0.0 | 0.01 | 0.11 | 0.01 | 97 | 1019.5 |
| 20260903041307 | 66 | 86 | 0.0 | 1.0 | 0.00 | 0.10 | 0.00 | 97 | 1019.2 |
| 20260903040806 | 66 | 86 | 0.0 | 1.0 | 0.00 | 0.10 | 0.00 | 97 | 1019.2 |
| 20260903040307 | 66 | 86 | 0.0 | 0.0 | 0.00 | 0.10 | 0.00 | 97 | 1019.2 |
| 20260903035809 | 66 | 86 | 0.0 | 0.0 | 0.00 | 0.10 | 0.10 | 97 | 1019.2 |
| 20260903035307 | 66 | 86 | 0.0 | 0.0 | 0.00 | 0.10 | 0.10 | 97 | 1019.2 |
| 20260903034803 | 66 | 86 | 0.0 | 0.0 | 0.00 | 0.10 | 0.10 | 97 | 1019.1 |
| 20260903034316 | 66 | 86 | 0.0 | 0.0 | 0.00 | 0.10 | 0.10 | 97 | 1018.9 |
| 20260903033816 | 66 | 86 | 0.0 | 0.0 | 0.00 | 0.10 | 0.10 | 97 | 1018.5 |
| 20260903033304 | 66 | 86 | 0.0 | 0.0 | 0.00 | 0.10 | 0.10 | 97 | 1018.5 |
| 20260903033025 | 66 | 86 | 0.0 | 1.0 | 0.00 | 0.10 | 0.10 | 97 | 1018.6 |
| 20260903032740 | 66 | 86 | 0.0 | 1.0 | 0.00 | 0.10 | 0.10 | 97 | 1018.7 |
| 20260903031801 | 66 | 86 | 0.0 | 1.0 | 0.00 | 0.10 | 0.10 | 97 | 1018.9 |
| 20260903031302 | 66 | 86 | 0.0 | 1.0 | 0.00 | 0.10 | 0.10 | 97 | 1018.6 |
| 20260903030800 | 66 | 86 | 0.0 | 1.0 | 0.00 | 0.10 | 0.10 | 97 | 1018.9 |
| 20260903030301 | 67 | 86 | 0.0 | 1.0 | 0.00 | 0.10 | 0.10 | 97 | 1018.8 |
| 20260903030026 | 67 | 86 | 0.0 | 1.0 | 0.00 | 0.10 | 0.10 | 97 | 1018.9 |
| 20260903025526 | 67 | 86 | 0.0 | 1.0 | 0.00 | 0.10 | 0.10 | 97 | 1018.7 |
| 20260903025249 | 67 | 86 | 0.0 | 1.0 | 0.00 | 0.10 | 0.10 | 97 | 1018.7 |
| 20260903024255 | 67 | 86 | 0.0 | 1.0 | 0.00 | 0.10 | 0.10 | 97 | 1019.0 |
| 20260903023756 | 67 | 86 | 0.0 | 0.0 | 0.00 | 0.10 | 0.10 | 97 | 1018.7 |
| 20260903023254 | 67 | 86 | 0.0 | 0.0 | 0.00 | 0.10 | 0.10 | 97 | 1018.7 |
| 20260903022754 | 67 | 86 | 0.0 | 0.0 | 0.00 | 0.10 | 0.10 | 97 | 1018.7 |
| 20260903022250 | 67 | 86 | 0.0 | 0.0 | 0.00 | 0.10 | 0.10 | 97 | 1018.6 |
| 20260903021751 | 67 | 86 | 0.0 | 0.0 | 0.00 | 0.10 | 0.10 | 97 | 1018.9 |
| 20260903021250 | 67 | 86 | 0.0 | 0.0 | 0.00 | 0.10 | 0.10 | 97 | 1019.3 |
| 20260903020802 | 67 | 86 | 0.0 | 0.0 | 0.00 | 0.10 | 0.10 | 97 | 1019.4 |
| 20260903020246 | 67 | 86 | 0.0 | 0.0 | 0.00 | 0.10 | 0.10 | 97 | 1019.3 |
| 20260903015741 | 67 | 86 | 0.0 | 0.0 | 0.00 | 0.10 | 0.10 | 97 | 1019.3 |
| 20260903015237 | 67 | 86 | 0.0 | 0.0 | 0.00 | 0.10 | 0.10 | 97 | 1019.2 |
| 20260903014738 | 67 | 86 | 0.0 | 0.0 | 0.00 | 0.10 | 0.10 | 97 | 1019.2 |
| 20260903014237 | 67 | 86 | 0.0 | 0.0 | 0.00 | 0.10 | 0.10 | 97 | 1018.6 |
| 20260903013737 | 67 | 86 | 0.0 | 0.0 | 0.00 | 0.10 | 0.10 | 96 | 1018.8 |
| 20260903013236 | 67 | 86 | 0.0 | 0.0 | 0.00 | 0.10 | 0.10 | 96 | 1018.9 |
| 20260903012734 | 67 | 86 | 0.0 | 0.0 | 0.00 | 0.10 | 0.10 | 96 | 1019.2 |
| 20260903012236 | 67 | 86 | 0.0 | 0.0 | 0.00 | 0.10 | 0.10 | 96 | 1018.9 |
| 20260903011734 | 67 | 86 | 0.0 | 0.0 | 0.01 | 0.10 | 0.10 | 96 | 1019.3 |
| 20260903011237 | 67 | 86 | 0.0 | 0.0 | 0.01 | 0.10 | 0.10 | 96 | 1019.2 |
| 20260903010733 | 67 | 86 | 0.0 | 1.0 | 0.01 | 0.10 | 0.10 | 96 | 1019.3 |
| 20260903010449 | 67 | 86 | 0.0 | 1.0 | 0.01 | 0.10 | 0.10 | 96 | 1019.4 |
| 20260903005946 | 67 | 86 | 0.0 | 1.0 | 0.01 | 0.10 | 0.10 | 96 | 1019.7 |
| 20260903005230 | 67 | 86 | 0.0 | 1.0 | 0.01 | 0.10 | 0.10 | 96 | 1019.5 |
| 20260903004951 | 67 | 86 | 0.0 | 1.0 | 0.01 | 0.10 | 0.10 | 96 | 1019.3 |
| 20260903004230 | 67 | 86 | 0.0 | 1.0 | 0.01 | 0.10 | 0.10 | 96 | 1019.3 |
| 20260903003735 | 67 | 86 | 0.0 | 2.0 | 0.01 | 0.10 | 0.10 | 96 | 1019.4 |
| 20260903003724 | 67 | 86 | 0.0 | 2.0 | 0.01 | 0.10 | 0.10 | 96 | 1019.3 |
| 20260903002709 | 67 | 86 | 0.0 | 2.0 | 0.01 | 0.10 | 0.10 | 96 | 1019.6 |
| 20260903002428 | 67 | 86 | 0.0 | 2.0 | 0.01 | 0.10 | 0.10 | 96 | 1019.6 |
| 20260903001656 | 67 | 86 | 0.0 | 1.0 | 0.00 | 0.09 | 0.09 | 96 | 1019.4 |
| 20260903001146 | 67 | 86 | 0.0 | 1.0 | 0.00 | 0.09 | 0.09 | 96 | 1019.3 |
| 20260903000640 | 67 | 86 | 0.0 | 1.0 | 0.00 | 0.09 | 0.09 | 96 | 1019.3 |
| 20260903000136 | 67 | 86 | 0.0 | 1.0 | 0.00 | 0.09 | 0.09 | 96 | 1019.3 |
| 20260902235624 | 67 | 86 | 0.0 | 0.0 | 0.00 | 0.09 | 0.09 | 96 | 1019.1 |
| 20260902235118 | 67 | 86 | 0.0 | 0.0 | 0.00 | 0.09 | 0.09 | 96 | 1018.8 |
| 20260902234612 | 67 | 86 | 0.0 | 0.0 | 0.00 | 0.09 | 0.09 | 96 | 1018.9 |
| 20260902234102 | 67 | 86 | 0.0 | 0.0 | 0.00 | 0.09 | 0.09 | 96 | 1019.0 |
| 20260902233557 | 67 | 86 | 0.0 | 0.0 | 0.00 | 0.09 | 0.09 | 96 | 1018.7 |
| 20260902233050 | 67 | 86 | 0.0 | 0.0 | 0.00 | 0.09 | 0.09 | 96 | 1018.9 |
| 20260902232540 | 67 | 86 | 0.0 | 0.0 | 0.00 | 0.09 | 0.09 | 96 | 1018.9 |
| 20260902232034 | 67 | 86 | 0.0 | 1.0 | 0.00 | 0.09 | 0.09 | 96 | 1018.9 |
| 20260902231748 | 67 | 86 | 0.0 | 1.0 | 0.00 | 0.09 | 0.09 | 96 | 1018.8 |
| 20260902231018 | 67 | 86 | 0.0 | 1.0 | 0.00 | 0.09 | 0.09 | 96 | 1018.9 |
| 20260902230742 | 67 | 86 | 0.0 | 1.0 | 0.00 | 0.09 | 0.09 | 96 | 1018.8 |
| 20260902230007 | 67 | 86 | 0.0 | 1.0 | 0.00 | 0.09 | 0.09 | 96 | 1018.8 |
| 20260902225456 | 68 | 86 | 0.0 | 1.0 | 0.00 | 0.10 | 0.09 | 96 | 1019.0 |
| 20260902224951 | 68 | 86 | 0.0 | 2.0 | 0.00 | 0.10 | 0.09 | 96 | 1019.0 |
| 20260902224708 | 68 | 86 | 0.0 | 2.0 | 0.00 | 0.10 | 0.09 | 96 | 1019.1 |
| 20260902223933 | 68 | 86 | 0.0 | 2.0 | 0.00 | 0.10 | 0.09 | 96 | 1019.1 |
| 20260902223428 | 68 | 86 | 0.0 | 2.0 | 0.00 | 0.10 | 0.09 | 96 | 1019.2 |
| 20260902222922 | 68 | 86 | 0.0 | 3.0 | 0.00 | 0.11 | 0.09 | 96 | 1019.5 |
| 20260902222418 | 68 | 86 | 0.0 | 3.0 | 0.00 | 0.27 | 0.09 | 96 | 1019.6 |
| 20260902221913 | 68 | 86 | 0.0 | 3.0 | 0.00 | 0.42 | 0.09 | 96 | 1019.7 |
| 20260902221412 | 68 | 86 | 0.0 | 3.0 | 0.00 | 0.42 | 0.09 | 96 | 1019.6 |
| 20260902220911 | 68 | 86 | 0.0 | 4.0 | 0.00 | 0.42 | 0.09 | 96 | 1019.6 |
| 20260902220411 | 68 | 87 | 0.0 | 4.0 | 0.00 | 0.42 | 0.09 | 96 | 1019.5 |
| 20260902215909 | 68 | 87 | 0.0 | 4.0 | 0.00 | 0.42 | 0.09 | 96 | 1019.6 |
| 20260902215408 | 68 | 87 | 0.0 | 4.0 | 0.00 | 0.42 | 0.09 | 96 | 1019.7 |
| 20260902214906 | 68 | 113 | 0.0 | 2.0 | 0.00 | 0.42 | 0.09 | 96 | 1019.7 |
| 20260902214407 | 68 | 111 | 0.0 | 1.0 | 0.00 | 0.42 | 0.09 | 96 | 1019.6 |
| 20260902213907 | 68 | 111 | 0.0 | 1.0 | 0.00 | 0.42 | 0.09 | 96 | 1019.8 |
| 20260902213404 | 68 | 111 | 0.0 | 2.0 | 0.00 | 0.42 | 0.09 | 96 | 1019.9 |
| 20260902212904 | 68 | 111 | 0.0 | 2.0 | 0.00 | 0.42 | 0.09 | 96 | 1019.9 |
| 20260902212404 | 68 | 111 | 0.0 | 2.0 | 0.00 | 0.42 | 0.09 | 96 | 1019.8 |
| 20260902211901 | 67 | 111 | 0.0 | 2.0 | 0.00 | 0.42 | 0.09 | 96 | 1019.8 |
| 20260902211400 | 68 | 111 | 0.0 | 3.0 | 0.00 | 0.42 | 0.09 | 96 | 1019.8 |
| 20260902210858 | 67 | 111 | 0.0 | 3.0 | 0.00 | 0.42 | 0.09 | 96 | 1019.8 |
| 20260902210359 | 67 | 111 | 0.0 | 3.0 | 0.00 | 0.42 | 0.09 | 96 | 1019.6 |
| 20260902205859 | 67 | 111 | 0.0 | 3.0 | 0.00 | 0.42 | 0.09 | 96 | 1019.8 |
| 20260902205400 | 67 | 113 | 0.0 | 2.0 | 0.00 | 0.42 | 0.09 | 96 | 1019.8 |
| 20260902205125 | 67 | 113 | 0.0 | 2.0 | 0.00 | 0.42 | 0.09 | 96 | 1019.6 |
| 20260902204358 | 67 | 113 | 0.0 | 2.0 | 0.00 | 0.42 | 0.09 | 96 | 1019.8 |
| 20260902203856 | 67 | 113 | 0.0 | 2.0 | 0.00 | 0.42 | 0.09 | 96 | 1019.8 |
| 20260902203357 | 67 | 113 | 0.0 | 2.0 | 0.00 | 0.42 | 0.09 | 96 | 1019.7 |
| 20260902202856 | 67 | 118 | 0.0 | 2.0 | 0.00 | 0.42 | 0.09 | 96 | 1019.7 |
| 20260902202614 | 67 | 118 | 0.0 | 2.0 | 0.00 | 0.42 | 0.09 | 96 | 1019.8 |
| 20260902201854 | 67 | 118 | 0.0 | 2.0 | 0.00 | 0.42 | 0.09 | 96 | 1019.7 |
| 20260902201353 | 67 | 118 | 0.0 | 2.0 | 0.00 | 0.42 | 0.09 | 96 | 1019.6 |
| 20260902201334 | 67 | 99 | 0.0 | 2.0 | 0.00 | 0.42 | 0.09 | 96 | 1019.6 |
| 20260902200949 | 67 | 104 | 0.0 | 2.0 | 0.00 | 0.42 | 0.09 | 96 | 1019.4 |
| 20260902195852 | 67 | 79 | 0.0 | 3.0 | 0.01 | 0.42 | 0.09 | 96 | 1019.7 |
| 20260902195351 | 67 | 79 | 0.0 | 3.0 | 0.04 | 0.42 | 0.09 | 96 | 1019.7 |
| 20260902195109 | 67 | 79 | 1.0 | 3.0 | 0.06 | 0.42 | 0.09 | 96 | 1019.8 |
| 20260902194339 | 67 | 79 | 0.0 | 3.0 | 0.06 | 0.42 | 0.09 | 96 | 1020.0 |
| 20260902194106 | 67 | 82 | 0.0 | 2.0 | 0.06 | 0.42 | 0.09 | 96 | 1020.0 |
| 20260902193335 | 67 | 82 | 0.0 | 2.0 | 0.06 | 0.42 | 0.09 | 96 | 1020.0 |
| 20260902192835 | 67 | 82 | 0.0 | 2.0 | 0.06 | 0.42 | 0.09 | 96 | 1020.1 |
| 20260902192336 | 67 | 82 | 0.0 | 2.0 | 0.06 | 0.42 | 0.09 | 96 | 1020.2 |
| 20260902191835 | 67 | 86 | 0.0 | 2.0 | 0.06 | 0.42 | 0.09 | 96 | 1020.1 |
| 20260902191334 | 67 | 86 | 0.0 | 4.0 | 0.06 | 0.42 | 0.09 | 96 | 1020.1 |
| 20260902190830 | 67 | 86 | 0.0 | 4.0 | 0.06 | 0.42 | 0.09 | 96 | 1020.4 |
| 20260902190328 | 67 | 172 | 0.0 | 4.0 | 0.06 | 0.42 | 0.09 | 96 | 1020.3 |
| 20260902185827 | 67 | 173 | 1.0 | 4.0 | 0.05 | 0.41 | 0.08 | 96 | 1020.5 |
| 20260902185550 | 67 | 44 | 0.0 | 2.0 | 0.01 | 0.37 | 0.05 | 95 | 1020.7 |
| 20260902184826 | 67 | 44 | 0.0 | 2.0 | 0.00 | 0.36 | 0.03 | 96 | 1020.8 |
| 20260902184325 | 67 | 44 | 0.0 | 2.0 | 0.00 | 0.36 | 0.03 | 96 | 1020.7 |
| 20260902183824 | 67 | 48 | 0.0 | 1.0 | 0.00 | 0.36 | 0.03 | 96 | 1020.6 |
| 20260902183321 | 67 | 48 | 0.0 | 0.0 | 0.00 | 0.36 | 0.03 | 96 | 1020.4 |
| 20260902182819 | 67 | 48 | 0.0 | 0.0 | 0.00 | 0.36 | 0.03 | 96 | 1020.3 |
| 20260902182319 | 67 | 48 | 0.0 | 0.0 | 0.00 | 0.36 | 0.03 | 96 | 1020.3 |
| 20260902181812 | 67 | 48 | 0.0 | 0.0 | 0.00 | 0.36 | 0.03 | 96 | 1020.4 |
| 20260902181307 | 67 | 48 | 0.0 | 0.0 | 0.00 | 0.36 | 0.03 | 95 | 1020.4 |
| 20260902181135 | 67 | 48 | 0.0 | 0.0 | 0.00 | 0.36 | 0.03 | 96 | 1020.5 |
| 20260902181059 | 67 | 48 | 0.0 | 0.0 | 0.00 | 0.36 | 0.03 | 96 | 1020.5 |
| 20260902175803 | 67 | 48 | 0.0 | 0.0 | 0.00 | 0.36 | 0.03 | 96 | 1020.6 |
| 20260902175307 | 67 | 48 | 0.0 | 0.0 | 0.00 | 0.36 | 0.03 | 96 | 1020.5 |
| 20260902175031 | 67 | 48 | 0.0 | 0.0 | 0.00 | 0.36 | 0.03 | 96 | 1020.4 |
| 20260902174301 | 66 | 48 | 0.0 | 0.0 | 0.00 | 0.36 | 0.03 | 96 | 1020.2 |
| 20260902174024 | 66 | 48 | 0.0 | 0.0 | 0.00 | 0.36 | 0.03 | 96 | 1020.3 |
| 20260902173301 | 66 | 48 | 0.0 | 0.0 | 0.00 | 0.36 | 0.03 | 96 | 1020.4 |
| 20260902172759 | 66 | 48 | 0.0 | 0.0 | 0.00 | 0.36 | 0.03 | 96 | 1020.4 |
| 20260902172257 | 66 | 48 | 0.0 | 0.0 | 0.00 | 0.36 | 0.03 | 96 | 1020.5 |
| 20260902171759 | 66 | 48 | 0.0 | 0.0 | 0.00 | 0.36 | 0.03 | 96 | 1020.5 |
| 20260902171256 | 66 | 48 | 0.0 | 0.0 | 0.00 | 0.36 | 0.03 | 96 | 1020.5 |
| 20260902170755 | 66 | 48 | 0.0 | 0.0 | 0.00 | 0.36 | 0.03 | 96 | 1020.5 |
| 20260902170254 | 66 | 48 | 0.0 | 0.0 | 0.00 | 0.36 | 0.03 | 96 | 1020.6 |
| 20260902165754 | 66 | 48 | 0.0 | 0.0 | 0.00 | 0.36 | 0.03 | 96 | 1020.6 |
| 20260902165252 | 66 | 48 | 0.0 | 0.0 | 0.00 | 0.36 | 0.03 | 97 | 1020.5 |
| 20260902164751 | 66 | 48 | 0.0 | 0.0 | 0.00 | 0.36 | 0.03 | 97 | 1020.6 |
| 20260902164251 | 66 | 48 | 0.0 | 0.0 | 0.00 | 0.36 | 0.03 | 97 | 1020.6 |
| 20260902163751 | 65 | 48 | 0.0 | 0.0 | 0.00 | 0.36 | 0.03 | 96 | 1020.5 |
| 20260902163253 | 65 | 48 | 0.0 | 0.0 | 0.00 | 0.36 | 0.03 | 96 | 1020.7 |
| 20260902162751 | 65 | 48 | 0.0 | 0.0 | 0.00 | 0.36 | 0.03 | 96 | 1020.9 |
| 20260902162253 | 66 | 48 | 0.0 | 1.0 | 0.00 | 0.36 | 0.03 | 96 | 1020.9 |
| 20260902161752 | 65 | 48 | 0.0 | 1.0 | 0.00 | 0.36 | 0.03 | 97 | 1021.1 |
| 20260902161252 | 65 | 48 | 0.0 | 1.0 | 0.00 | 0.36 | 0.03 | 97 | 1020.9 |
| 20260902160752 | 65 | 48 | 0.0 | 1.0 | 0.00 | 0.36 | 0.03 | 97 | 1021.1 |
| 20260902160253 | 65 | 48 | 0.0 | 1.0 | 0.00 | 0.36 | 0.03 | 96 | 1020.8 |
| 20260902155752 | 65 | 48 | 0.0 | 3.0 | 0.00 | 0.36 | 0.03 | 97 | 1020.8 |
| 20260902155252 | 65 | 48 | 0.0 | 3.0 | 0.00 | 0.36 | 0.03 | 97 | 1020.8 |
| 20260902154748 | 65 | 48 | 0.0 | 3.0 | 0.00 | 0.37 | 0.03 | 97 | 1020.7 |
| 20260902154247 | 65 | 48 | 0.0 | 3.0 | 0.00 | 0.37 | 0.03 | 97 | 1020.7 |
| 20260902153749 | 65 | 48 | 0.0 | 2.0 | 0.00 | 0.37 | 0.03 | 97 | 1020.7 |
| 20260902153247 | 65 | 48 | 0.0 | 2.0 | 0.00 | 0.37 | 0.03 | 97 | 1020.8 |
| 20260902153010 | 65 | 48 | 0.0 | 2.0 | 0.00 | 0.37 | 0.03 | 97 | 1020.8 |
| 20260902152508 | 65 | 48 | 0.0 | 2.0 | 0.00 | 0.38 | 0.03 | 97 | 1020.9 |
| 20260902151747 | 65 | 48 | 0.0 | 2.0 | 0.00 | 0.38 | 0.03 | 97 | 1021.0 |
| 20260902151248 | 65 | 48 | 0.0 | 2.0 | 0.00 | 0.39 | 0.03 | 97 | 1021.0 |
| 20260902150747 | 65 | 48 | 0.0 | 4.0 | 0.00 | 0.40 | 0.03 | 97 | 1021.0 |
| 20260902150736 | 65 | 48 | 0.0 | 4.0 | 0.00 | 0.40 | 0.03 | 97 | 1021.0 |
| 20260902145744 | 65 | 48 | 0.0 | 6.0 | 0.00 | 0.41 | 0.03 | 97 | 1021.0 |
| 20260902145245 | 65 | 50 | 0.0 | 6.0 | 0.00 | 0.42 | 0.03 | 97 | 1020.9 |
| 20260902144745 | 65 | 53 | 1.0 | 6.0 | 0.00 | 0.42 | 0.03 | 97 | 1020.8 |
| 20260902144245 | 65 | 82 | 1.0 | 6.0 | 0.00 | 0.43 | 0.03 | 97 | 1020.7 |
| 20260902143745 | 65 | 34 | 1.0 | 4.0 | 0.00 | 0.44 | 0.03 | 97 | 1020.7 |
| 20260902143512 | 65 | 36 | 1.0 | 5.0 | 0.00 | 0.44 | 0.03 | 97 | 1020.7 |
| 20260902142745 | 65 | 47 | 1.0 | 5.0 | 0.00 | 0.44 | 0.03 | 97 | 1020.7 |
| 20260902142243 | 65 | 47 | 1.0 | 5.0 | 0.01 | 0.45 | 0.03 | 97 | 1020.6 |
| 20260902141746 | 65 | 47 | 1.0 | 5.0 | 0.01 | 0.45 | 0.03 | 97 | 1020.7 |
| 20260902141245 | 65 | 42 | 0.0 | 5.0 | 0.01 | 0.45 | 0.03 | 97 | 1020.7 |
| 20260902140957 | 65 | 31 | 0.0 | 4.0 | 0.01 | 0.45 | 0.03 | 97 | 1020.8 |
| 20260902140233 | 65 | 32 | 0.0 | 4.0 | 0.01 | 0.45 | 0.03 | 97 | 1020.9 |
| 20260902135723 | 65 | 32 | 1.0 | 4.0 | 0.01 | 0.45 | 0.03 | 97 | 1020.7 |
| 20260902135217 | 64 | 38 | 1.0 | 4.0 | 0.01 | 0.45 | 0.03 | 97 | 1020.8 |
| 20260902134711 | 64 | 35 | 1.0 | 4.0 | 0.01 | 0.45 | 0.03 | 97 | 1020.9 |
| 20260902134201 | 64 | 42 | 0.0 | 4.0 | 0.01 | 0.45 | 0.03 | 97 | 1020.8 |
| 20260902133918 | 64 | 42 | 0.0 | 4.0 | 0.01 | 0.45 | 0.03 | 97 | 1020.8 |
| 20260902133149 | 65 | 44 | 0.0 | 3.0 | 0.01 | 0.45 | 0.03 | 97 | 1020.8 |
| 20260902132639 | 64 | 44 | 0.0 | 3.0 | 0.00 | 0.44 | 0.03 | 97 | 1020.7 |
| 20260902132133 | 64 | 44 | 0.0 | 3.0 | 0.00 | 0.44 | 0.02 | 97 | 1020.7 |
| 20260902131627 | 64 | 44 | 0.0 | 3.0 | 0.00 | 0.44 | 0.02 | 97 | 1020.7 |
| 20260902131117 | 64 | 158 | 0.0 | 3.0 | 0.00 | 0.44 | 0.02 | 97 | 1020.5 |
| 20260902130612 | 64 | 158 | 0.0 | 3.0 | 0.00 | 0.44 | 0.02 | 97 | 1020.6 |
| 20260902130109 | 64 | 169 | 1.0 | 3.0 | 0.00 | 0.44 | 0.02 | 97 | 1020.6 |
| 20260902125555 | 64 | 169 | 1.0 | 3.0 | 0.00 | 0.44 | 0.02 | 97 | 1020.5 |
| 20260902125049 | 64 | 181 | 1.0 | 3.0 | 0.00 | 0.44 | 0.02 | 97 | 1020.4 |
| 20260902124808 | 64 | 182 | 0.0 | 3.0 | 0.00 | 0.44 | 0.02 | 97 | 1020.5 |
| 20260902124033 | 64 | 195 | 0.0 | 4.0 | 0.00 | 0.44 | 0.02 | 97 | 1020.6 |
| 20260902123527 | 64 | 194 | 1.0 | 4.0 | 0.00 | 0.44 | 0.02 | 97 | 1020.4 |
| 20260902123021 | 64 | 268 | 1.0 | 4.0 | 0.00 | 0.44 | 0.02 | 97 | 1020.2 |
| 20260902122511 | 64 | 34 | 1.0 | 4.0 | 0.00 | 0.44 | 0.02 | 97 | 1020.2 |
| 20260902122005 | 64 | 36 | 0.0 | 4.0 | 0.00 | 0.44 | 0.02 | 97 | 1020.2 |